[[{"header":{"parameterUnit":"m.s-1","parameterCategory":1,"la1":30.2991,"la2":30.254,"lo1":-89.0895,"lo2":-89.0444,"dy":0.0017,"dx":0.0017,"nx":28,"ny":28,"refTime":"2025-09-09T03:00:00:Z","depth":0,"parameterNumber":2,"parameterNumberName":"U-component_of_WINDS"},"data":[0,0,0,0,0,0,0,0,0,0,0,0,0,0,0,0,0,0,0,0,0,0,0,0,0,0,0,0,0,0,0,0,0,0,0,0,0,0,0,0,0,0,0,0,0,0,0,0,0,0,0,0,0,0,0,0,0,0,-2.4371,-2.4371,0,-2.4298,-2.4297,-2.4296,-2.4167,-2.4164,-2.4162,-2.4159,-2.4089,-2.4089,-2.4089,0,0,0,0,0,0,0,0,0,0,0,0,0,-2.4404,-2.4404,-2.4372,-2.4371,-2.437,-2.4298,-2.4297,-2.4296,-2.4167,-2.4164,-2.4161,-2.4158,-2.4088,-2.4089,-2.4089,0,0,0,0,0,0,0,0,0,0,0,0,0,-2.4366,-2.4404,-2.4372,-2.4297,-2.4289,-2.4298,-2.4297,-2.4296,-2.4168,-2.4164,-2.416,-2.4157,-2.4088,-2.4089,-2.4089,-2.4168,0,0,-2.4091,-2.4092,0,0,0,0,0,0,0,0,-2.4369,-2.4365,-2.4309,-2.4302,-2.4293,-2.4238,-2.4282,-2.4253,-2.4169,-2.4214,-2.4159,-2.4155,-2.4141,-2.4137,-2.4132,-2.4164,-2.4161,-2.4091,-2.4092,-2.4092,-2.4092,0,0,0,0,0,0,0,-2.4371,-2.4368,-2.4343,-2.4308,-2.4299,-2.4268,-2.4258,-2.4276,-2.42,-2.421,-2.42,-2.4193,-2.4137,-2.4132,-2.4129,-2.416,-2.4091,-2.4092,-2.4092,-2.4093,-2.4254,-2.4258,0,0,0,0,0,0,-2.4384,-2.4371,-2.4345,-2.434,-2.4322,-2.427,-2.426,-2.4259,-2.4199,-2.4186,-2.4196,-2.4187,-2.4132,-2.4129,-2.4126,-2.4215,-2.4092,-2.4093,-2.4093,-2.4251,-2.4255,-2.426,0,0,0,0,0,0,-2.4386,-2.4383,-2.4348,-2.4353,-2.4346,-2.4274,-2.4274,-2.426,-2.4255,-2.4189,-2.4175,-2.4205,-2.4129,-2.4126,-2.4158,-2.4211,-2.4093,-2.4094,-2.4246,-2.4252,-2.4257,-2.4393,0,0,0,0,0,0,-2.4387,-2.4384,-2.4412,-2.4354,-2.4346,-2.438,-2.4277,-2.4261,-2.4256,-2.4243,-2.4193,-2.4182,-2.4126,-2.4158,-2.4159,-2.421,-2.4094,-2.4241,-2.4249,-2.4256,-2.4383,-2.4403,-2.4419,0,0,0,0,0,-2.4389,-2.4454,-2.4415,-2.4412,-2.4379,-2.4383,-2.4379,-2.4313,-2.426,-2.4289,-2.4246,-2.4183,-2.4205,-2.4163,-2.4162,-2.4214,-2.4237,-2.4246,-2.4255,-2.4375,-2.4399,-2.4419,0,0,0,0,0,0,-2.4521,-2.4445,-2.44,-2.4449,-2.4423,-2.4361,-2.4395,-2.4339,-2.4329,-2.4318,-2.4238,-2.4228,-2.4272,-2.4245,-2.42,-2.4287,-2.4211,-2.422,-2.4303,-2.4324,-2.4342,-2.4348,-2.4095,0,0,0,0,0,-2.4556,-2.4564,-2.4497,-2.4547,-2.4536,-2.4468,-2.4467,-2.4419,-2.439,-2.4379,-2.4339,-2.4315,-2.4315,-2.4318,-2.4315,-2.4378,-2.4367,-2.4414,-2.4432,-2.4447,-2.4456,-2.4489,-2.451,-2.4289,-2.4288,-2.4288,0,0,-2.4628,-2.4588,-2.4598,-2.4572,-2.4547,-2.4559,-2.446,-2.4477,-2.4485,-2.4382,-2.441,-2.438,-2.4348,-2.4397,-2.4416,-2.4376,-2.4515,-2.4458,-2.447,-2.4472,-2.4501,-2.4522,-2.4541,-2.4295,-2.4293,-2.4292,0,0,-2.4766,-2.4736,-2.4774,-2.475,-2.4713,-2.4667,-2.4677,-2.4623,-2.4599,-2.4626,-2.4549,-2.4558,-2.4562,-2.4542,-2.4533,-2.4664,-2.4606,-2.4666,-2.476,-2.4793,-2.481,-2.4825,-2.4874,-2.4893,-2.4675,-2.4675,-2.4675,0,-2.4861,-2.4875,-2.4801,-2.4822,-2.4814,-2.4719,-2.4759,-2.474,-2.4704,-2.4702,-2.4657,-2.466,-2.4631,-2.4675,-2.4707,-2.4702,-2.4712,-2.4672,-2.4813,-2.4828,-2.4841,-2.4887,-2.4905,-2.4683,-2.4682,-2.4681,-2.468,0,-2.4994,-2.5005,-2.5041,-2.5008,-2.5003,-2.5034,-2.4966,-2.4971,-2.4922,-2.4882,-2.4912,-2.4874,-2.4863,-2.4869,-2.4822,-2.4907,-2.4884,-2.4828,-2.475,-2.4871,-2.4913,-2.4929,-2.4694,-2.4691,-2.4689,-2.4687,0,0,-2.5215,-2.514,-2.5155,-2.5139,-2.5091,-2.5099,-2.5126,-2.5113,-2.512,-2.5098,-2.512,-2.5126,-2.5073,-2.5063,-2.5013,-2.5042,-2.5151,-2.4982,-2.498,-2.5017,-2.5244,-2.5289,-2.531,-2.5112,-2.5115,-2.5117,-2.5248,0,-2.5344,-2.5384,-2.5319,-2.5375,-2.5385,-2.5296,-2.5319,-2.5293,-2.5257,-2.5261,-2.522,-2.5226,-2.5156,-2.5149,-2.5174,-2.5133,-2.5196,-2.5122,-2.5134,-2.5135,-2.5147,-2.5331,-2.5377,-2.5503,-2.5263,-2.5266,-2.5268,0,-2.55,-2.5486,-2.5543,-2.5492,-2.5494,-2.5517,-2.5501,-2.5505,-2.5475,-2.5446,-2.5435,-2.5375,-2.54,-2.5324,-2.5357,-2.5309,-2.5309,-2.529,-2.5293,-2.5294,-2.521,-2.5339,-2.5541,-2.5561,-2.5293,-2.5291,-2.5289,0,-2.5658,-2.5653,-2.5687,-2.5676,-2.5617,-2.5635,-2.5612,-2.5577,-2.5574,-2.5561,-2.5559,-2.5549,-2.5544,-2.5539,-2.5479,-2.5429,-2.5521,-2.544,-2.55,-2.5502,-2.5525,-2.5525,-2.5733,-2.5523,-2.5523,-2.5522,-2.5522,0,-2.581,-2.585,-2.5757,-2.5778,-2.582,-2.5744,-2.5788,-2.5756,-2.5726,-2.5741,-2.5662,-2.5678,-2.5597,-2.5605,-2.5558,-2.5595,-2.5593,-2.5572,-2.556,-2.558,-2.5583,-2.5581,-2.5572,-2.5527,-2.5526,-2.5525,-2.5524,0,-2.5994,-2.5933,-2.5965,-2.5906,-2.5892,-2.5926,-2.5877,-2.5895,-2.5852,-2.5872,-2.5872,-2.5807,-2.5812,-2.5751,-2.5745,-2.5714,-2.5772,-2.5743,-2.5783,-2.5775,-2.5839,-2.5835,-2.6055,-2.6081,-2.5853,-2.5855,-2.5857,0,-2.6097,-2.6124,-2.6069,-2.6072,-2.6052,-2.6059,-2.6056,-2.5983,-2.5983,-2.595,-2.5973,-2.5971,-2.5966,-2.5978,-2.5932,-2.5927,-2.5899,-2.5976,-2.5897,-2.5918,-2.5902,-2.5902,-2.5906,-2.5993,-2.5996,-2.5998,-2.6,0,-2.6285,-2.6254,-2.6251,-2.6239,-2.6237,-2.6223,-2.6205,-2.6213,-2.6134,-2.6138,-2.6142,-2.6138,-2.6131,-2.6131,-2.6117,-2.6094,-2.6036,-2.6025,-2.6039,-2.6062,-2.6084,-2.6075,-2.583,-2.6021,-2.6019,-2.6017,-2.6016,-2.6015,-2.6432,-2.6454,-2.6418,-2.6418,-2.6397,-2.6382,-2.6396,-2.6356,-2.6357,-2.6345,-2.6301,-2.6313,-2.6283,-2.6258,-2.6241,-2.625,-2.6213,-2.6233,-2.6238,-2.6245,-2.6258,-2.6081,-2.6247,-2.6246,-2.6246,-2.6245,-2.6245,0,-2.6619,-2.6591,-2.6592,-2.6569,-2.657,-2.6512,-2.6489,-2.6494,-2.6505,-2.6481,-2.6477,-2.6482,-2.6482,-2.6435,-2.643,-2.6446,-2.6419,-2.6448,-2.6447,-2.6443,-2.629,-2.628,-2.647,-2.647,-2.6469,-2.6469,-2.6469,-2.6469,-2.6716,-2.6749,-2.6714,-2.6737,-2.6709,-2.6718,-2.6711,-2.6697,-2.6678,-2.6687,-2.6686,-2.6654,-2.6622,-2.6613,-2.6611,-2.6598,-2.6601,-2.6639,-2.6616,-2.6475,-2.6453,-2.6433,-2.6422,-2.6639,-2.6639,-2.6768,-2.6769,-2.677]},{"header":{"parameterUnit":"m.s-1","parameterCategory":1,"la1":30.2991,"la2":30.254,"lo1":-89.0895,"lo2":-89.0444,"dy":0.0017,"dx":0.0017,"nx":28,"ny":28,"refTime":"2025-09-09T03:00:00:Z","depth":0,"parameterNumber":3,"parameterNumberName":"V-component_of_WINDS"},"data":[0,0,0,0,0,0,0,0,0,0,0,0,0,0,0,0,0,0,0,0,0,0,0,0,0,0,0,0,0,0,0,0,0,0,0,0,0,0,0,0,0,0,0,0,0,0,0,0,0,0,0,0,0,0,0,0,0,0,0.6176,0.6175,0,0.6141,0.6141,0.614,0.6122,0.6122,0.6122,0.6122,0.6086,0.6085,0.6084,0,0,0,0,0,0,0,0,0,0,0,0,0,0.6227,0.6227,0.6176,0.6175,0.6175,0.6141,0.6141,0.614,0.6122,0.6122,0.6122,0.6122,0.6086,0.6085,0.6084,0,0,0,0,0,0,0,0,0,0,0,0,0,0.62,0.6226,0.6176,0.6162,0.616,0.6141,0.6141,0.614,0.6122,0.6122,0.6122,0.6122,0.6086,0.6085,0.6084,0.6075,0,0,0.6079,0.6079,0,0,0,0,0,0,0,0,0.6202,0.6198,0.6164,0.6163,0.6161,0.6136,0.6145,0.6118,0.6122,0.6137,0.6122,0.6122,0.6102,0.61,0.6093,0.6074,0.6072,0.6079,0.6078,0.6078,0.6077,0,0,0,0,0,0,0,0.6204,0.62,0.6162,0.6164,0.6162,0.6158,0.6154,0.614,0.612,0.6136,0.6134,0.613,0.6102,0.6095,0.6092,0.6071,0.6079,0.6078,0.6077,0.6076,0.6045,0.6045,0,0,0,0,0,0,0.6208,0.6201,0.6163,0.6161,0.6182,0.6157,0.6152,0.6144,0.612,0.6117,0.613,0.613,0.6097,0.6094,0.6091,0.608,0.6078,0.6076,0.6075,0.6045,0.6045,0.6045,0,0,0,0,0,0,0.6209,0.6204,0.6164,0.6181,0.6175,0.6156,0.6147,0.6143,0.6136,0.6116,0.6113,0.6127,0.6097,0.6093,0.608,0.6078,0.6076,0.6074,0.6045,0.6045,0.6045,0.6058,0,0,0,0,0,0,0.621,0.6205,0.6201,0.6181,0.6175,0.6154,0.6147,0.6143,0.6134,0.6133,0.6112,0.6109,0.6097,0.6082,0.6078,0.6076,0.6073,0.6045,0.6045,0.6045,0.6057,0.6058,0.6059,0,0,0,0,0,0.6212,0.6206,0.6201,0.6197,0.6169,0.6154,0.615,0.6136,0.6134,0.613,0.6118,0.6109,0.608,0.6081,0.6076,0.6074,0.6045,0.6045,0.6045,0.6057,0.6058,0.6059,0,0,0,0,0,0,0.6226,0.6203,0.6197,0.6184,0.6171,0.6151,0.6145,0.6138,0.6125,0.6124,0.6108,0.6103,0.6092,0.6082,0.6083,0.6065,0.6061,0.606,0.6072,0.6073,0.6074,0.6076,0.6072,0,0,0,0,0,0.6227,0.6216,0.6197,0.6187,0.6181,0.6165,0.6157,0.6148,0.6134,0.6128,0.6114,0.6101,0.6088,0.608,0.6068,0.6056,0.6052,0.6053,0.6054,0.6055,0.6054,0.6048,0.6048,0.6045,0.6045,0.6045,0,0,0.623,0.6216,0.621,0.6189,0.6178,0.6167,0.616,0.6148,0.614,0.6126,0.6113,0.6103,0.6086,0.6074,0.6068,0.6066,0.6054,0.6055,0.6055,0.6054,0.6048,0.6048,0.6049,0.6045,0.6045,0.6045,0,0,0.6229,0.6218,0.6208,0.6198,0.6182,0.6171,0.6169,0.615,0.6143,0.613,0.612,0.611,0.6089,0.6078,0.607,0.6068,0.606,0.6064,0.6068,0.6063,0.6063,0.6063,0.6062,0.6062,0.6064,0.6064,0.6064,0,0.6234,0.6217,0.6205,0.6194,0.6186,0.6174,0.6165,0.6155,0.6135,0.613,0.6128,0.6102,0.609,0.6076,0.6076,0.6069,0.6067,0.6066,0.6064,0.6064,0.6064,0.6063,0.6063,0.6064,0.6064,0.6064,0.6064,0,0.6225,0.6214,0.6208,0.619,0.6182,0.6172,0.6158,0.6151,0.6144,0.6134,0.6121,0.6107,0.6092,0.6088,0.608,0.6073,0.6072,0.6067,0.6062,0.6065,0.6064,0.6064,0.6065,0.6065,0.6065,0.6065,0,0,0.6229,0.6206,0.6204,0.6197,0.6179,0.617,0.6161,0.6147,0.6141,0.6128,0.612,0.6104,0.61,0.609,0.6082,0.6077,0.6077,0.6073,0.6072,0.6074,0.6069,0.6072,0.6072,0.6072,0.6072,0.6072,0.607,0,0.6225,0.6208,0.6197,0.6184,0.6173,0.6163,0.6155,0.6144,0.6135,0.6125,0.6115,0.6104,0.6099,0.6094,0.6089,0.6078,0.6075,0.6078,0.6064,0.6064,0.6067,0.6071,0.6074,0.6072,0.6069,0.6069,0.6069,0,0.6218,0.6207,0.6193,0.6178,0.6173,0.6166,0.6153,0.6144,0.6131,0.6125,0.6116,0.6108,0.6098,0.6095,0.6082,0.6084,0.6078,0.6072,0.6072,0.6069,0.6066,0.6068,0.6072,0.6071,0.6069,0.6069,0.6069,0,0.6222,0.6204,0.6193,0.6187,0.6169,0.6165,0.6157,0.6144,0.6137,0.6126,0.6121,0.6109,0.6103,0.6094,0.6082,0.6082,0.607,0.6067,0.6065,0.6065,0.6061,0.6062,0.6064,0.6059,0.6059,0.6059,0.6059,0,0.6219,0.621,0.6195,0.6188,0.6179,0.6168,0.6159,0.6151,0.614,0.6132,0.6123,0.6115,0.6102,0.6093,0.6084,0.6075,0.6072,0.6067,0.6064,0.6067,0.6067,0.6062,0.6061,0.6059,0.6059,0.6059,0.6059,0,0.6221,0.6211,0.6198,0.6183,0.618,0.6173,0.6161,0.6154,0.6146,0.6136,0.6133,0.6119,0.6109,0.6097,0.6082,0.6077,0.6067,0.6064,0.6072,0.607,0.6069,0.6069,0.6066,0.6066,0.6063,0.6063,0.6063,0,0.6219,0.6213,0.6197,0.6192,0.6184,0.6175,0.6168,0.6157,0.6151,0.6137,0.6132,0.6121,0.6111,0.6095,0.6084,0.6073,0.6069,0.6069,0.6067,0.6071,0.6069,0.6069,0.6068,0.6069,0.607,0.607,0.607,0,0.6216,0.6212,0.6202,0.6192,0.6184,0.6174,0.6165,0.6161,0.6148,0.6141,0.6131,0.6123,0.6109,0.6098,0.6086,0.6079,0.6072,0.6071,0.607,0.6072,0.6076,0.6073,0.6072,0.607,0.607,0.607,0.607,0.607,0.6216,0.621,0.6199,0.6189,0.6181,0.6173,0.6166,0.6158,0.6149,0.6137,0.6131,0.6121,0.611,0.6094,0.6087,0.6078,0.6076,0.6075,0.6074,0.6074,0.6074,0.6079,0.6076,0.6076,0.6076,0.6076,0.6076,0,0.6212,0.6205,0.6196,0.6184,0.6176,0.6172,0.6162,0.6156,0.6147,0.6138,0.6129,0.6118,0.6108,0.6097,0.6086,0.6082,0.6079,0.6079,0.6079,0.6078,0.6077,0.6079,0.6082,0.6082,0.6082,0.6082,0.6082,0.6082,0.6209,0.62,0.6194,0.6181,0.6174,0.6164,0.6159,0.6151,0.6144,0.6132,0.6124,0.6117,0.6108,0.6097,0.6088,0.6085,0.6081,0.6083,0.6079,0.6078,0.6077,0.6077,0.6078,0.6082,0.6082,0.608,0.608,0.608]}]]